Plymouth, NH

7:38 PM EDT on September 22, 2019 (GMT -0400)
Plymouth

Weather History for K1P1 - August, 2019

Change the Weather History Date:

Monday, August 26, 2019

  Actual Average (KLCI) Record (KLCI)
Temperature  
Mean Temperature 59 °F -  
Max Temperature 75 °F 76 °F 89 °F (1992)
Min Temperature 43 °F 55 °F 46 °F (1987)
Degree Days  
Heating Degree Days 6    
Growing Degree Days 9 (Base 50)    
Moisture  
Dew Point 48 °F    
Average Humidity 76    
Maximum Humidity 99    
Minimum Humidity 34    
Precipitation  
Precipitation 0.00 in - - ()
Sea Level Pressure  
Sea Level Pressure 30.25 in    
Wind  
Wind Speed 1 mph ()    
Max Wind Speed 8 mph    
Max Gust Speed -    
Visibility 7.2 miles    
Events Fog    
Averages and records for this station are not official NWS values.
T = Trace of Precipitation, MM = Missing Value Source: Averaged Metar Reports

Daily Weather History Graph

Daily Weather History Graph

Search for Another Location

Airport or City:

Astronomy

Aug. 26, 2019 Rise Set
Actual Time 6:03 AM EDT 7:33 PM EDT
Civil Twilight 5:33 AM EDT 8:03 PM EDT
Nautical Twilight 4:56 AM EDT 8:39 PM EDT
Astronomical Twilight 4:17 AM EDT 9:18 PM EDT
Moon 1:18 AM EDT (8/26) 5:01 PM EDT (8/26)
Length of Visible Light 14h 30m
Length of Day
13h 29m
Waning Crescent, 19% of the Moon is Illuminated
Aug 26
Waning Crescent
Aug 30
New
Sep 5
First Quarter
Sep 14
Full
Sep 21
Last Quarter

Hourly Weather History & Observations

Time (EDT) Temp. Windchill Dew Point Humidity Pressure Visibility Wind Dir Wind Speed Gust Speed Precip Events Conditions
12:15 AM 47.5 °F - 46.4 °F 96% 30.33 in 10.0 mi Calm Calm - N/A   Clear
12:35 AM 46.8 °F - 45.7 °F 96% 30.33 in 4.0 mi Calm Calm - N/A   Clear
12:55 AM 46.4 °F - 45.5 °F 97% 30.33 in 2.0 mi Calm Calm - N/A   Clear
1:15 AM 45.9 °F - 45.0 °F 97% 30.32 in 5.0 mi Calm Calm - N/A   Clear
1:35 AM 45.7 °F - 44.8 °F 97% 30.32 in 10.0 mi Calm Calm - N/A   Clear
1:55 AM 45.0 °F - 44.4 °F 98% 30.32 in 5.0 mi Calm Calm - N/A   Clear
2:15 AM 44.6 °F - 43.7 °F 97% 30.32 in 1.5 mi Calm Calm - N/A   Mist
2:35 AM 44.6 °F - 43.7 °F 97% 30.32 in 7.0 mi Calm Calm - N/A   Scattered Clouds
2:55 AM 44.8 °F - 44.1 °F 97% 30.32 in 1.2 mi Calm Calm - N/A   Overcast
3:15 AM 44.6 °F - 43.7 °F 97% 30.32 in 0.8 mi Calm Calm - N/A   Overcast
3:35 AM 43.7 °F - 43.0 °F 97% 30.32 in 0.8 mi Calm Calm - N/A   Mostly Cloudy
3:55 AM 43.7 °F - 43.2 °F 98% 30.32 in 0.8 mi Calm Calm - N/A   Overcast
4:15 AM 44.1 °F - 43.5 °F 98% 30.32 in 0.5 mi Calm Calm - N/A Fog Fog
4:35 AM 43.9 °F - 43.3 °F 98% 30.31 in 0.8 mi Calm Calm - N/A   Overcast
4:55 AM 44.1 °F - 43.7 °F 99% 30.31 in 0.8 mi Calm Calm - N/A   Overcast
5:15 AM 44.2 °F - 43.7 °F 98% 30.31 in 0.5 mi Calm Calm - N/A Fog Fog
5:35 AM 44.1 °F - 43.7 °F 99% 30.31 in 0.2 mi Calm Calm - N/A Fog Fog
5:55 AM 44.6 °F - 44.1 °F 98% 30.31 in 0.5 mi Calm Calm - N/A Fog Fog
6:15 AM 45.0 °F - 44.6 °F 99% 30.31 in 0.2 mi Calm Calm - N/A Fog Fog
6:35 AM 44.8 °F - 44.2 °F 98% 30.31 in 0.2 mi Calm Calm - N/A Fog Fog
6:55 AM 45.3 °F 44.0 °F 44.6 °F 97% 30.32 in 0.8 mi NW 3.5 mph - N/A   Overcast
7:15 AM 45.1 °F - 44.6 °F 98% 30.32 in 0.2 mi Calm Calm - N/A Fog Fog
7:35 AM 46.0 °F - 45.5 °F 98% 30.32 in 0.2 mi Calm Calm - N/A Fog Fog
7:55 AM 46.4 °F - 45.7 °F 97% 30.33 in 2.0 mi Calm Calm - N/A   Overcast
8:15 AM 47.5 °F - 46.6 °F 97% 30.33 in 5.0 mi Calm Calm - N/A   Overcast
8:35 AM 48.2 °F - 47.3 °F 97% 30.32 in 10.0 mi Calm Calm - N/A   Overcast
8:55 AM 49.5 °F - 48.7 °F 97% 30.31 in 10.0 mi Calm Calm - N/A   Mostly Cloudy
9:15 AM 51.3 °F - 50.4 °F 97% 30.31 in 10.0 mi Calm Calm - N/A   Clear
9:35 AM 53.4 °F - 52.5 °F 97% 30.30 in 10.0 mi Calm Calm - N/A   Clear
10:15 AM 59.9 °F - 54.1 °F 81% 30.29 in 10.0 mi Calm Calm - N/A   Clear
10:35 AM 62.6 °F - 51.3 °F 66% 30.28 in 10.0 mi Calm Calm - N/A   Clear
10:55 AM 65.8 °F - 52.3 °F 62% 30.27 in 10.0 mi Calm Calm - N/A   Clear
11:15 AM 67.8 °F - 48.9 °F 51% 30.27 in 10.0 mi SW 3.5 mph - N/A   Clear
11:35 AM 69.3 °F - 48.7 °F 48% 30.26 in 10.0 mi Calm Calm - N/A   Clear
11:55 AM 70.0 °F - 48.7 °F 47% 30.25 in 10.0 mi Calm Calm - N/A   Clear
12:15 PM 71.4 °F - 45.9 °F 40% 30.24 in 10.0 mi Calm Calm - N/A   Clear
12:35 PM 72.1 °F - 45.1 °F 38% 30.23 in 10.0 mi ESE 4.6 mph - N/A   Clear
12:55 PM 72.7 °F - 42.6 °F 34% 30.23 in 10.0 mi ESE 8.1 mph - N/A   Clear
1:15 PM 73.8 °F - 46.6 °F 38% 30.23 in 10.0 mi ESE 4.6 mph - N/A   Clear
1:35 PM 73.4 °F - 44.1 °F 35% 30.23 in 10.0 mi ESE 8.1 mph - N/A   Clear
1:55 PM 73.8 °F - 44.8 °F 35% 30.22 in 10.0 mi ESE 8.1 mph - N/A   Clear
2:15 PM 74.1 °F - 46.2 °F 37% 30.21 in 10.0 mi ESE 5.8 mph - N/A   Clear
2:55 PM 73.8 °F - 45.1 °F 36% 30.21 in 10.0 mi ESE 4.6 mph - N/A   Clear
3:15 PM 74.7 °F - 45.3 °F 35% 30.20 in 10.0 mi Calm Calm - N/A   Clear
3:35 PM 75.2 °F - 48.0 °F 38% 30.20 in 10.0 mi Calm Calm - N/A   Clear
3:55 PM 74.3 °F - 47.7 °F 39% 30.19 in 10.0 mi SSW 4.6 mph - N/A   Clear
4:15 PM 74.5 °F - 47.3 °F 38% 30.18 in 10.0 mi Calm Calm - N/A   Clear
4:35 PM 74.3 °F - 46.9 °F 38% 30.18 in 10.0 mi SSE 4.6 mph - N/A   Clear
4:55 PM 73.8 °F - 46.8 °F 38% 30.17 in 10.0 mi South 4.6 mph - N/A   Clear
5:15 PM 73.6 °F - 48.0 °F 40% 30.17 in 10.0 mi ESE 4.6 mph - N/A   Clear
5:35 PM 73.6 °F - 48.6 °F 41% 30.17 in 10.0 mi Calm Calm - N/A   Clear
5:55 PM 73.4 °F - 49.3 °F 42% 30.17 in 10.0 mi Calm Calm - N/A   Clear
6:15 PM 72.1 °F - 49.6 °F 45% 30.17 in 10.0 mi Calm Calm - N/A   Clear
6:35 PM 70.5 °F - 53.8 °F 55% 30.16 in 10.0 mi Calm Calm - N/A   Clear
6:55 PM 67.8 °F - 56.5 °F 67% 30.16 in 10.0 mi Calm Calm - N/A   Clear
7:15 PM 64.4 °F - 54.9 °F 71% 30.16 in 10.0 mi Calm Calm - N/A   Clear
7:35 PM 61.2 °F - 54.5 °F 79% 30.17 in 10.0 mi Calm Calm - N/A   Clear
7:55 PM 59.2 °F - 54.1 °F 83% 30.17 in 10.0 mi Calm Calm - N/A   Clear
8:15 PM 57.6 °F - 53.8 °F 87% 30.17 in 10.0 mi Calm Calm - N/A   Clear
8:35 PM 56.7 °F - 53.8 °F 90% 30.17 in 10.0 mi Calm Calm - N/A   Clear
8:55 PM 55.6 °F - 53.4 °F 92% 30.18 in 10.0 mi Calm Calm - N/A   Clear
9:15 PM 54.5 °F - 52.3 °F 92% 30.18 in 10.0 mi Calm Calm - N/A   Clear
9:35 PM 54.0 °F - 52.2 °F 94% 30.18 in 10.0 mi Calm Calm - N/A   Clear
9:55 PM 53.4 °F - 51.8 °F 94% 30.18 in 10.0 mi Calm Calm - N/A   Clear
10:15 PM 52.5 °F - 51.1 °F 95% 30.17 in 10.0 mi Calm Calm - N/A   Clear
10:35 PM 51.4 °F - 50.0 °F 95% 30.17 in 10.0 mi Calm Calm - N/A   Clear
10:55 PM 50.7 °F - 49.3 °F 95% 30.17 in 10.0 mi NNE 3.5 mph - N/A   Clear
11:15 PM 51.1 °F - 50.0 °F 96% 30.17 in 10.0 mi Calm Calm - N/A   Clear
11:35 PM 50.2 °F - 48.9 °F 95% 30.17 in 10.0 mi Calm Calm - N/A   Clear
11:55 PM 49.3 °F - 48.0 °F 95% 30.17 in 7.0 mi Calm Calm - N/A   Clear